Regional Weather Roundup
Issued by NWS

Home | Current Version | Previous Version | Graphics & Text | Print | Product List | Glossary On
Versions: 1 2 3 4 5 6 7 8 9 10 11 12 13 14 15 16 17 18 19 20 21 22 23 24 25 26 27 28 29 30 31 32 33 34 35 36 37 38 39 40 41 42 43 44 45 46 47 48 49 50
000
ASUS43 KOAX 200010
RWRNE

WEATHER ROUNDUP FOR NEBRASKA
NATIONAL WEATHER SERVICE OMAHA NE
600 PM CST FRI DEC 19 2014

NOTES: SATELLITE DATA IS BEING USED TO AUGMENT CLOUD COVER ABOVE
       12000 FEET.
       "FAIR" INDICATES FEW OR NO CLOUDS BELOW 12,000 FEET WITH NO
       SIGNIFICANT WEATHER AND/OR OBSTRUCTIONS TO VISIBILITY.

  * THESE STATIONS DO NOT REPORT WEATHER SUCH AS RAIN...SNOW OR FOG.

NEZ001>004-019>022-054>056-200100-
NEBRASKA PANHANDLE

CITY           SKY/WX    TMP DP  RH WIND       PRES   REMARKS
SCOTTSBLUFF    CLEAR     31  22  69 W8        29.99R WCI  23
6HR MIN TEMP:  23; 6HR MAX TEMP:  39;

ALLIANCE       CLEAR     23  19  85 W8        29.98R WCI  14
6HR MIN TEMP:  23; 6HR MAX TEMP:  36;

CHADRON        CLEAR     28  21  75 SW3       29.97S
6HR MIN TEMP:  28; 6HR MAX TEMP:  44;

KIMBALL        CLEAR     32  22  66 W10       29.99R WCI  24
SIDNEY         CLEAR     29  23  78 SW6       30.00S WCI  23
6HR MIN TEMP:  28; 6HR MAX TEMP:  43;

$$

NEZ057>060-069>072-079>082-200100-
SOUTHWEST NEBRASKA

CITY           SKY/WX    TMP DP  RH WIND       PRES   REMARKS
NORTH PLATTE   CLEAR     28  24  85 W5        30.00S WCI  23
6HR MIN TEMP:  28; 6HR MAX TEMP:  40;

IMPERIAL       CLEAR     36  27  69 W8        30.02S WCI  30
6HR MIN TEMP:  35; 6HR MAX TEMP:  41;

LEXINGTON      CLEAR     32  29  90 S5        30.02S WCI  27
MCCOOK         CLEAR     43  26  51 SW5       30.03S
6HR MIN TEMP:  31; 6HR MAX TEMP:  49;

OGALLALA       CLEAR     28  26  89 W9        30.01R WCI  19
$$

NEZ005>010-023>029-035>040-094-200100-
NORTH CENTRAL NEBRASKA

CITY           SKY/WX    TMP DP  RH WIND       PRES   REMARKS
VALENTINE      PTCLDY    27  21  78 W5        29.97S WCI  22
6HR MIN TEMP:  26; 6HR MAX TEMP:  40;

AINSWORTH      CLEAR     23  22  96 S6        29.98R WCI  16
BROKEN BOW     CLEAR     30  26  85 CALM      30.00S
6HR MIN TEMP:  29; 6HR MAX TEMP:  36;

O`NEILL        CLOUDY    28  28 100 S6        30.02S FOG     WCI  21
THEDFORD       CLEAR     33  28  83 SW7       29.98R WCI  26
$$

NEZ041-046>049-061>064-073>077-083>087-200100-
SOUTH CENTRAL NEBRASKA

CITY           SKY/WX    TMP DP  RH WIND       PRES   REMARKS
GRAND ISLAND   CLOUDY    33  30  88 S7        30.07S WCI  27
6HR MIN TEMP:  30; 6HR MAX TEMP:  35;

AURORA         CLOUDY    34  32  92 S6        30.08S WCI  29
HASTINGS       CLOUDY    34  31  88 S7        30.06S FOG     WCI  28
6HR MIN TEMP:  32; 6HR MAX TEMP:  36;

HEBRON         CLOUDY    33  30  90 S8        30.13R WCI  26
HOLDREGE       CLEAR     29  27  94 S3        30.04S FOG
KEARNEY *      CLEAR     27  25  93 S5        30.05S WCI  21
YORK           CLOUDY    32  32 100 SW12      30.10S WCI  23
$$

NEZ011>018-030>034-042>045-200100-
NORTHEAST NEBRASKA

CITY           SKY/WX    TMP DP  RH WIND       PRES   REMARKS
NORFOLK        CLOUDY    33  29  85 S8        30.07F WCI  26
6HR MIN TEMP:  32; 6HR MAX TEMP:  33;

ALBION         CLOUDY    32  29  88 S6        30.07S WCI  26
BLAIR          CLOUDY    33  29  86 S7        30.14R WCI  27
COLUMBUS *     CLOUDY    34  27  75 S8        30.12R WCI  27
FREMONT        CLOUDY    34  30  86 SE7       30.14S WCI  28
TEKAMAH        CLOUDY    33  28  81 S10       30.15S WCI  25
6HR MIN TEMP:  33; 6HR MAX TEMP:  35;

WAYNE          CLOUDY    32  29  88 S10       30.10F WCI  24
$$

NEZ050>053-065>068-078-088>093-200100-
SOUTHEAST NEBRASKA

CITY           SKY/WX    TMP DP  RH WIND       PRES   REMARKS
LINCOLN        CLOUDY    34  30  85 S8        30.15R WCI  27
6HR MIN TEMP:  34; 6HR MAX TEMP:  35;

OMAHA EPPLEY   CLOUDY    32  29  88 SE10      30.17S FOG     WCI  24
6HR MIN TEMP:  32; 6HR MAX TEMP:  34; 6HR PCP: TRACE;

BEATRICE       CLOUDY    32  30  93 S6        30.15R WCI  26
FALLS CITY     CLOUDY    30  26  85 S3        30.19S
6HR MIN TEMP:  29; 6HR MAX TEMP:  31;

NEBRASKA CITY  CLOUDY    31  31 100 S7        30.16S FOG     WCI  24
PLATTSMOUTH    CLOUDY    30  28  92 S7        30.16S FOG     WCI  24
$$

NEZ044-045-051>053-067-200100-
OMAHA AREA

CITY           SKY/WX    TMP DP  RH WIND       PRES   REMARKS
OMAHA EPPLEY   CLOUDY    32  29  88 SE10      30.17S FOG     WCI  24
6HR MIN TEMP:  32; 6HR MAX TEMP:  34; 6HR PCP: TRACE;

BLAIR          CLOUDY    33  29  86 S7        30.14R WCI  27
FREMONT        CLOUDY    34  30  86 SE7       30.14S WCI  28
MILLARD        CLOUDY    33  29  86 SE5       30.16R WCI  28
OFFUTT AFB     CLOUDY    32  28  86 SE7       30.16S WCI  26
PLATTSMOUTH    CLOUDY    30  28  92 S7        30.16S FOG     WCI  24
WAHOO          CLOUDY    34  29  83 S7        30.14R WCI  28
$$



USA.gov is the U.S. government's official web portal to all federal, state and local government web resources and services.